Siga o Apolo11 no Facebook   Siga o Apolo11 no Twiiter
Ciência, Espaço e Tecnologia




Elementos Keplerianos formato Two Line

Para que um programa de rastreio possa saber a localização exata de qualquer satélite no espaço e assim poder rastreá-lo corretamente, é necessário que ele seja carregado com algumas informações.

Estas informações são chamadas de Elementos Orbitais ou Elementos Keplerianos e consistem em 2 linhas com dezenas de números. Esses números nada mais são que os parâmetros orbitais do satélite, tais como altitude, atitude, excentricidade da órbita, número de órbitas por dia, etc.

Com base nestas informações o programa é capaz de determinar com bastante exatidão a posição de qualquer satélite no espaço e nos informar em qual horário este estará dentro do alcance de nossa estação. Para que isso seja feito com precisão é necessário que os dados estejam sempre bem atualizadas.

Devido aos parâmetros orbitais serem descritos em 2 linhas, estes formato é também conhecido internacionalmente por 2line (leia-se Two Line”).

Para atualizar seu programa de rastreio basta copiar os dados disponibilizados e fornece-los ao programa. Nossos elementos orbitais são atualizados diariamente.

NOAATodos os satélites ambientais da série NOAA
30 DiasSatélites lançados nos últimos 30 dias
ISSSatélites e foguetes relacionados à Estação Espacial Internacional
HAMSatélites construídos por radiomadores
CUBESatélites tipo cubo, com 10 centímetros de lado
METEOSatélites voltados à previsão do tempo
EDUSatélites construídos e operados por universidades
VIS100 satélites mais brilhantes que podem ser vistos a olho nú



Satélites série NOAA
NOAA 1 [-]              
1 04793U 70106A   21168.17315049 -.00000038  00000-0  40149-4 0  9999
2 04793 101.6069 235.3895 0031149 312.8675 102.4658 12.53999341311808
NOAA 2 (ITOS-D) [-]     
1 06235U 72082A   21168.55528910 -.00000019  00000-0  16716-3 0  9993
2 06235 101.9040 144.2690 0004533  55.6428  53.5808 12.53135880226267
NOAA 3 [-]              
1 06920U 73086A   21168.89949667 -.00000054  00000-0 -63255-4 0  9993
2 06920 102.1586 145.0831 0005956 242.6665 172.9176 12.40342786155786
NOAA 4 [-]              
1 07529U 74089A   21168.53820998 -.00000023  00000-0  14050-3 0  9992
2 07529 101.8620 142.8935 0009528  82.8848  28.3170 12.53149828130836
NOAA 5 [-]              
1 09057U 76077A   21168.48686177 -.00000024  00000-0  15595-3 0  9998
2 09057 102.0419 136.2212 0010423  92.0622  19.5912 12.37760099 28582
TIROS N [-]             
1 11060U 78096A   21168.06726309  .00000014  00000-0  27944-4 0  9994
2 11060  98.6873 225.4276 0011740 112.9598 247.2818 14.18312493419818
NOAA 6 [-]              
1 11416U 79057A   21168.60914674  .00000044  00000-0  32117-4 0  9992
2 11416  98.6651 173.8611 0009125 253.2715 106.7468 14.33639254189245
NOAA 7 [-]              
1 12553U 81059A   21168.60507575 -.00000024  00000-0  10963-4 0  9992
2 12553  99.0466 202.4687 0012520  74.3104 285.9451 14.17297211 66113
NOAA 8 [-]              
1 13923U 83022A   21168.56841029  .00000008  00000-0  20697-4 0  9992
2 13923  98.6542 156.2301 0014794 192.9319 167.1486 14.28738467990305
NOAA 9 [-]              
1 15427U 84123A   21168.69321545  .00000012  00000-0  28789-4 0  9991
2 15427  98.9936 131.4582 0015745 117.8496  55.3783 14.16135089885210
NOAA 10 [-]             
1 16969U 86073A   21168.58845802  .00000014  00000-0  22904-4 0  9999
2 16969  98.5324 157.2358 0011242 306.5754 162.0067 14.28136671808754
NOAA 11 [-]             
1 19531U 88089A   21168.61684669  .00000000  00000-0  20698-4 0  9995
2 19531  98.4034 173.2427 0011811 145.5399 214.6544 14.15274599689212
NOAA 12 [-]             
1 21263U 91032A   21168.61840825 -.00000002  00000-0  16881-4 0  9992
2 21263  98.5041 173.9083 0013028 331.6093  28.4376 14.25942689564738
NOAA 13 [-]             
1 22739U 93050A   21168.57720093  .00000001  00000-0  22597-4 0  9991
2 22739  98.4679 162.3868 0008621 314.4626  45.5841 14.12786654435536
NOAA 14 [-]             
1 23455U 94089A   21168.61381676 -.00000026  00000-0  77360-5 0  9992
2 23455  98.4904 209.1758 0008348 295.8841  64.1472 14.14163508365143
NOAA 15 [B]             
1 25338U 98030A   21168.64710650  .00000074  00000-0  49310-4 0  9990
2 25338  98.6813 197.1704 0009182 281.4467  78.5681 14.26038052201277
NOAA 16 [-]             
1 26536U 00055A   21168.58492870 -.00000021  00000-0  11332-4 0  9991
2 26536  98.6866 234.0359 0011531 123.7715 236.4558 14.13280643365818
NOAA 17 [-]             
1 27453U 02032A   21168.54593093  .00000039  00000-0  35339-4 0  9993
2 27453  98.6281 114.0349 0010683 252.6540 107.3471 14.25061351986881
NOAA 18 [B]             
1 28654U 05018A   21168.72933053  .00000066  00000-0  60067-4 0  9994
2 28654  98.9936 233.5950 0013139 281.9324  78.0374 14.12614696828573
NOAA 19 [+]             
1 33591U 09005A   21168.76342852  .00000086  00000-0  71945-4 0  9994
2 33591  99.1827 189.4770 0014791 129.1777 231.0710 14.12475595636968
SUOMI NPP [+]           
1 37849U 11061A   21168.79277946  .00000017  00000-0  28656-4 0  9998
2 37849  98.7374 107.4609 0000862  68.3967 343.9669 14.19534572499455
NOAA 20 [+]             
1 43013U 17073A   21168.74770748 -.00000010  00000-0  16029-4 0  9995
2 43013  98.7207 107.3845 0001269  71.9221 288.2093 14.19546986185485


IMAGENS DE SATÉLITES !    Clique e conheça nosso Vídeo Workshop de sensoriamento remoto e imagens meteorológicas.
Apolo11.com - Todos os direitos reservados - 2001 - 2021
Política de Privacidade

"As leis são como teias de aranha. Se alguma pobre criatura fraca é apanhada por elas, fica apreisonada, mas uma outra maior pode rompê-las. E ficar livre" - Solon - 5 séculos antes de Cristo